Retour au catalogue

FALCON 9-510 STAGE 2

ActifMEO
NORAD 64868·ROCKET BODY·🇺🇸 United States
Ce nom de satellite n'a pas encore été confirmé par des sources officielles.

Lancé Jul 22, 2025 depuis Cape Canaveral Space Force Station

Loading…

Prochains Passages (prochaines 24 heures)

TLE

FraisSource: Space-Track

Époque: Sep 14, 2026, 04:12 UTC

1 64868U 25153C   26257.17506022  .00000048  00000-0 -37898-3 0  9994
2 64868   9.7064 191.8388 1939673 312.5806  32.5968  7.32290295 30668

Suivez FALCON 9-510 STAGE 2 en temps réel avec AllMySat

Download on the App Store